#timestamp,LO_Frequency,Hit,StdDev 
1677063615.3,286046994.9,Y
1677063635.1,286046997.0,P
1677063655.9,286046998.9,N
1677063675.7,286046998.8,N
1677063695.5,286047001.0,N
1677063715.4,286047001.1,N
1677063735.2,286046998.5,N
1677063755.1,286046999.5,N
1677063756.0,286046999.5,N
1677063775.8,286046999.0,N
1677063795.6,286046998.1,N
1677063815.5,286046998.6,N
1677063835.3,286046999.2,N
1677063855.2,286046999.5,N
1677063875.9,286046999.3,N
1677063895.7,286046998.4,N
1677063915.6,286046999.4,N
1677063935.4,286046999.4,N
1677063955.3,286046998.9,N
1677063975.1,286047000.8,N
1677063976.0,286047000.8,N
1677063995.8,286047000.6,N
1677064015.7,286047002.3,N
1677064035.5,286047000.2,N
1677064055.3,286047001.1,N
1677064075.2,286047000.8,N
1677064095.0,286046998.8,N
1677064095.9,286046998.8,N
1677064115.8,286046998.3,N
1677064135.6,286046999.3,N
1677064155.4,286046999.2,N
1677064175.3,286046998.7,N
1677064195.1,286047000.5,N
1677064215.9,286047001.1,N
1677064235.7,286046998.4,N
1677064255.5,286046996.6,Y
1677064275.4,286046998.4,P
1677064295.2,286046998.5,N
1677064315.0,286046998.7,N
1677064315.9,286046998.7,N
1677064335.8,286046999.0,N
1677064355.6,286047000.1,N
1677064375.5,286047000.5,N
1677064395.3,286047000.3,N
1677064415.1,286046999.7,N
1677064435.9,286047002.0,N
1677064455.7,286047000.5,N
1677064475.5,286046997.3,N
1677064495.4,286046997.4,N
1677064515.2,286046996.7,N
1677064535.1,286046997.9,N
1677064536.0,286046997.9,N
1677064555.8,286046997.2,N
1677064575.6,286047000.5,N
1677064595.5,286047000.2,N
1677064615.3,286047000.4,N
1677064635.1,286047000.7,N
1677064655.9,286046999.2,N
1677064675.7,286046998.1,N
1677064695.6,286046998.3,N
1677064715.4,286047000.8,N
1677064735.2,286047000.3,N
1677064755.1,286047004.2,Y
1677064756.0,286047004.2,P
1677064775.8,286047003.8,N
1677064795.6,286047002.7,N
1677064815.5,286046998.3,N
1677064835.3,286046999.3,N
1677064855.2,286046998.7,N
1677064875.0,286046996.5,N
1677064875.9,286046996.5,N
1677064895.7,286046998.7,N
1677064915.6,286046996.5,N
1677064935.4,286046999.4,N
1677064985.3,286047001.1,E
1677064995.2,286047001.0,N
1677065015.1,286046998.5,P
1677065016.0,286046998.5,N
1677065035.8,286046998.4,N
1677065055.6,286046996.7,Y
1677065075.5,286047000.6,P
1677065095.3,286047000.0,N
1677065115.1,286047002.7,P
1677065135.9,286047004.2,Y
1677065155.7,286047000.4,P
1677065175.6,286047000.6,P
1677065195.4,286046997.1,P
1677065215.2,286046997.3,N
1677065235.1,286046999.4,N
1677065236.0,286046999.4,N
1677065255.8,286047001.2,N
1677065275.7,286047000.9,N
1677065295.5,286047002.4,N
1677065315.3,286047002.4,N
1677065335.2,286047000.0,N
1677065355.0,286046999.8,N
1677065355.9,286046999.8,N
1677065375.7,286046999.8,N
1677065395.6,286047002.6,N
1677065415.4,286046998.3,N
1677065435.3,286046998.3,N
1677065455.1,286046998.5,N
1677065456.0,286046998.5,N
1677065475.8,286047000.4,N
1677065495.7,286047000.7,N
1677065515.5,286047000.3,N
1677065535.3,286046999.7,N
1677065555.2,286047003.9,N
1677065575.0,286047001.6,N
1677065575.9,286047001.6,N
1677065595.8,286046998.1,N
1677065615.6,286046996.9,N
1677065635.4,286046998.5,N
1677065655.3,286047000.9,N
1677065675.1,286047000.2,N
1677065695.9,286047000.0,N
1677065715.7,286047001.0,N
1677065735.5,286047002.2,N
1677065755.4,286047002.0,N
1677065775.2,286047000.7,N
1677065795.0,286047001.1,N
1677065796.0,286047001.1,N
1677065815.8,286047000.4,N
1677065835.6,286047001.1,N
1677065855.5,286047002.7,N
1677065875.3,286046999.7,N
1677065895.1,286047003.8,N
1677065915.9,286047006.0,Y
1677065935.7,286047013.1,P
1677065955.6,286047022.3,P
1677065975.4,286047024.0,N
1677065995.2,286047022.2,N
1677066015.1,286047017.5,N
1677066016.0,286047017.5,N
1677066035.8,286047015.3,N
1677066055.7,286047010.6,N
1677066075.5,286047011.9,N
1677066095.3,286047003.9,N
1677066115.2,286047002.7,N
1677066135.9,286047002.7,N
1677066155.7,286047001.9,N
1677066175.6,286047002.6,N
1677066195.4,286047000.9,N
1677066215.3,286046998.3,N
1677066235.1,286047002.0,N
1677066236.0,286047002.0,N
1677066255.8,286047006.1,N
1677066275.7,286047005.0,N
1677066295.5,286047003.6,N
1677066315.4,286047004.2,N
1677066335.2,286047001.6,N
1677066355.0,286046999.8,N
1677066356.0,286046999.8,N
1677066375.8,286047002.4,N
1677066395.6,286047002.7,N
1677066415.5,286047001.4,N
1677066435.3,286047009.3,N
1677066455.1,286047008.7,N
1677066475.9,286047006.1,N
1677066495.7,286047003.4,N
1677066515.6,286047004.4,N
1677066535.4,286047002.8,N
1677066555.2,286046998.5,N
1677066575.1,286046998.8,N
1677066576.0,286046998.8,N
1677066595.8,286046997.3,N
1677066615.6,286046996.1,N
1677066635.5,286046994.4,N
1677066655.3,286046992.5,N
1677066675.2,286046992.0,N
1677066695.9,286046990.5,N
1677066715.7,286046990.7,N
1677066735.6,286046991.5,N
1677066755.4,286046991.1,N
1677066775.3,286046989.8,N
1677066795.1,286046989.8,N
1677066796.0,286046989.8,N
1677066815.8,286046989.7,N
1677066835.7,286046987.0,N
1677066855.5,286046987.5,N
1677066875.3,286046987.0,N
1677066895.2,286046989.6,N
1677066915.0,286046989.6,N
1677066915.9,286046989.6,N
1677066935.8,286046987.8,N
1677066955.6,286046985.4,N
1677066975.4,286046988.2,N
1677066995.3,286046985.3,N
1677067015.1,286046986.1,N
1677067035.8,286046985.7,N
1677067055.7,286046988.1,N
1677067075.5,286046985.5,Y
1677067095.4,286046995.8,P
1677067115.2,286046996.1,N
1677067135.0,286046995.5,N
1677067135.9,286046995.5,N
1677067155.8,286046995.9,N
1677067175.6,286046995.5,N
1677067195.5,286046995.7,N
